• In Uzbekistan
  • List of Countries
  • For 7 days
  • Water Temperature
  • Satellite Maps
  • Weather Map
  • Weather Widgets
  • user-avatar
    Login

    Hourly Weather Nakhchivan

    Today, 23 October, Monday

    Time Temperature Precipitation Wind Pressure Humidity
    00:00 +15°C° 0 mm 2 mps 685 mmHg 32%
    01:00 +14°C° 0 mm 2 mps 685 mmHg 33%
    02:00 +14°C° 0 mm 2 mps 685 mmHg 35%
    03:00 +13°C° 0 mm 2 mps 684 mmHg 37%
    04:00 +13°C° 0 mm 2 mps 684 mmHg 38%
    05:00 +13°C° 0 mm 2 mps 685 mmHg 40%
    06:00 +12°C° 0 mm 2 mps 685 mmHg 41%
    07:00 +14°C° 0 mm 1 mps 686 mmHg 37%
    08:00 +16°C° 0 mm 1 mps 686 mmHg 32%
    09:00 +19°C° 0 mm 1 mps 686 mmHg 28%
    10:00 +19°C° 0 mm 2 mps 687 mmHg 26%
    11:00 +19°C° 0 mm 2 mps 687 mmHg 25%
    12:00 +20°C° 0 mm 2 mps 687 mmHg 23%
    13:00 +21°C° 0 mm 2 mps 687 mmHg 23%
    14:00 +21°C° 0 mm 2 mps 687 mmHg 22%
    15:00 +21°C° 0 mm 2 mps 687 mmHg 22%
    16:00 +20°C° 0 mm 2 mps 687 mmHg 24%
    17:00 +19°C° 0 mm 2 mps 687 mmHg 27%
    18:00 +19°C° 0 mm 1 mps 687 mmHg 29%
    19:00 +18°C° 0 mm 1 mps 688 mmHg 31%
    20:00 +16°C° 0 mm 1 mps 688 mmHg 32%
    21:00 +16°C° 0 mm 1 mps 688 mmHg 33%
    22:00 +15°C° 0 mm 1 mps 688 mmHg 34%
    23:00 +15°C° 0 mm 1 mps 688 mmHg 35%

    Tomorrow, 24 October, Tuesday

    Time Temperature Precipitation Wind Pressure Humidity
    00:00 +14°C° 0 mm 1 mps 688 mmHg 35%
    01:00 +14°C° 0 mm 1 mps 688 mmHg 36%
    02:00 +14°C° 0 mm 1 mps 688 mmHg 36%
    03:00 +13°C° 0 mm 1 mps 688 mmHg 37%
    04:00 +13°C° 0 mm 1 mps 688 mmHg 37%
    05:00 +12°C° 0 mm 1 mps 688 mmHg 37%
    06:00 +12°C° 0 mm 1 mps 688 mmHg 38%
    07:00 +14°C° 0 mm 1 mps 688 mmHg 33%
    08:00 +16°C° 0 mm 1 mps 689 mmHg 29%
    09:00 +17°C° 0 mm 0 mps 689 mmHg 24%
    10:00 +20°C° 0 mm 1 mps 689 mmHg 22%
    11:00 +21°C° 0 mm 1 mps 689 mmHg 21%
    12:00 +22°C° 0 mm 1 mps 689 mmHg 19%
    13:00 +23°C° 0 mm 2 mps 689 mmHg 19%
    14:00 +23°C° 0 mm 2 mps 689 mmHg 18%
    15:00 +24°C° 0 mm 3 mps 689 mmHg 17%
    16:00 +21°C° 0 mm 2 mps 689 mmHg 19%
    17:00 +20°C° 0 mm 2 mps 689 mmHg 20%
    18:00 +19°C° 0 mm 1 mps 689 mmHg 22%
    19:00 +19°C° 0 mm 1 mps 689 mmHg 22%
    20:00 +18°C° 0 mm 1 mps 689 mmHg 23%
    21:00 +18°C° 0 mm 1 mps 689 mmHg 23%
    22:00 +16°C° 0 mm 1 mps 689 mmHg 24%
    23:00 +16°C° 0 mm 1 mps 690 mmHg 25%

    Day after tomorrow, 25 October, Wednesday

    Time Temperature Precipitation Wind Pressure Humidity
    00:00 +15°C° 0 mm 1 mps 690 mmHg 26%
    01:00 +15°C° 0 mm 1 mps 690 mmHg 28%
    02:00 +15°C° 0 mm 1 mps 690 mmHg 29%
    03:00 +14°C° 0 mm 1 mps 690 mmHg 30%
    04:00 +14°C° 0 mm 1 mps 690 mmHg 32%
    05:00 +14°C° 0 mm 1 mps 690 mmHg 33%
    06:00 +13°C° 0 mm 1 mps 690 mmHg 34%
    07:00 +15°C° 0 mm 1 mps 690 mmHg 30%
    08:00 +19°C° 0 mm 1 mps 691 mmHg 26%
    09:00 +21°C° 0 mm 1 mps 692 mmHg 21%
    10:00 +22°C° 0 mm 1 mps 691 mmHg 20%
    11:00 +23°C° 0 mm 1 mps 691 mmHg 19%
    12:00 +24°C° 0 mm 2 mps 691 mmHg 18%
    13:00 +25°C° 0 mm 2 mps 691 mmHg 18%
    14:00 +25°C° 0 mm 2 mps 690 mmHg 17%
    15:00 +25°C° 0 mm 2 mps 690 mmHg 17%
    16:00 +24°C° 0 mm 2 mps 690 mmHg 20%
    17:00 +21°C° 0 mm 2 mps 690 mmHg 23%
    18:00 +21°C° 0 mm 1 mps 690 mmHg 25%
    19:00 +20°C° 0 mm 1 mps 690 mmHg 26%
    20:00 +20°C° 0 mm 1 mps 690 mmHg 28%
    21:00 +19°C° 0 mm 1 mps 690 mmHg 29%
    22:00 +19°C° 0 mm 1 mps 690 mmHg 29%
    23:00 +18°C° 0 mm 1 mps 690 mmHg 30%

    26 October, Thursday

    Time Temperature Precipitation Wind Pressure Humidity
    00:00 +18°C° 0 mm 1 mps 690 mmHg 30%
    01:00 +18°C° 0 mm 1 mps 689 mmHg 31%
    02:00 +16°C° 0 mm 1 mps 689 mmHg 32%
    03:00 +16°C° 0 mm 1 mps 689 mmHg 32%
    04:00 +16°C° 0 mm 1 mps 689 mmHg 33%
    05:00 +15°C° 0 mm 1 mps 689 mmHg 34%
    06:00 +15°C° 0 mm 1 mps 689 mmHg 35%
    07:00 +18°C° 0 mm 1 mps 689 mmHg 31%
    08:00 +20°C° 0 mm 1 mps 689 mmHg 28%
    09:00 +22°C° 0 mm 1 mps 690 mmHg 24%
    10:00 +24°C° 0 mm 2 mps 689 mmHg 22%
    11:00 +25°C° 0 mm 2 mps 689 mmHg 21%
    12:00 +26°C° 0 mm 3 mps 688 mmHg 19%
    13:00 +26°C° 0 mm 3 mps 688 mmHg 19%
    14:00 +27°C° 0 mm 3 mps 688 mmHg 18%
    15:00 +27°C° 0 mm 3 mps 687 mmHg 18%
    16:00 +25°C° 0 mm 3 mps 687 mmHg 20%
    17:00 +24°C° 0 mm 2 mps 687 mmHg 23%
    18:00 +21°C° 0 mm 2 mps 687 mmHg 25%
    19:00 +20°C° 0 mm 2 mps 687 mmHg 26%
    20:00 +20°C° 0 mm 2 mps 688 mmHg 27%
    21:00 +19°C° 0 mm 2 mps 688 mmHg 28%
    22:00 +18°C° 0 mm 2 mps 688 mmHg 29%
    23:00 +18°C° 0 mm 2 mps 688 mmHg 30%

    27 October, Friday

    Time Temperature Precipitation Wind Pressure Humidity
    00:00 +17°C° 0 mm 2 mps 688 mmHg 31%
    01:00 +17°C° 0 mm 2 mps 688 mmHg 32%
    02:00 +16°C° 0 mm 2 mps 688 mmHg 33%
    03:00 +16°C° 0 mm 2 mps 687 mmHg 34%
    04:00 +15°C° 0 mm 2 mps 688 mmHg 36%
    05:00 +15°C° 0 mm 2 mps 688 mmHg 37%
    06:00 +14°C° 0 mm 2 mps 688 mmHg 38%
    07:00 +16°C° 0 mm 1 mps 688 mmHg 34%
    08:00 +19°C° 0 mm 1 mps 689 mmHg 30%
    09:00 +21°C° 0 mm 1 mps 689 mmHg 26%
    10:00 +22°C° 0 mm 1 mps 689 mmHg 24%
    11:00 +23°C° 0 mm 2 mps 688 mmHg 23%
    12:00 +24°C° 0 mm 2 mps 688 mmHg 21%
    13:00 +24°C° 0 mm 2 mps 688 mmHg 21%
    14:00 +24°C° 0 mm 3 mps 687 mmHg 20%
    15:00 +24°C° 0 mm 3 mps 687 mmHg 19%
    16:00 +22°C° 0 mm 3 mps 687 mmHg 21%
    17:00 +20°C° 0 mm 2 mps 687 mmHg 24%
    18:00 +19°C° 0 mm 2 mps 687 mmHg 26%
    19:00 +19°C° 0 mm 2 mps 687 mmHg 26%
    20:00 +19°C° 0 mm 1 mps 687 mmHg 26%
    21:00 +18°C° 0 mm 1 mps 687 mmHg 26%
    22:00 +18°C° 0 mm 1 mps 687 mmHg 28%
    23:00 +18°C° 0 mm 1 mps 687 mmHg 29%

    28 October, Saturday

    Time Temperature Precipitation Wind Pressure Humidity
    00:00 +16°C° 0 mm 1 mps 687 mmHg 30%
    01:00 +16°C° 0 mm 1 mps 686 mmHg 32%
    02:00 +16°C° 0 mm 1 mps 686 mmHg 34%
    03:00 +16°C° 0 mm 1 mps 686 mmHg 37%
    04:00 +15°C° 0.1 mm 1 mps 686 mmHg 40%
    05:00 +15°C° 0.1 mm 1 mps 686 mmHg 44%
    06:00 +15°C° 0.1 mm 1 mps 686 mmHg 47%
    07:00 +17°C° 0.1 mm 2 mps 687 mmHg 43%
    08:00 +18°C° 0.1 mm 2 mps 687 mmHg 40%
    09:00 +20°C° 0.1 mm 2 mps 687 mmHg 36%
    10:00 +21°C° 0.3 mm 2 mps 687 mmHg 37%
    11:00 +21°C° 0.3 mm 3 mps 687 mmHg 38%
    12:00 +21°C° 0.3 mm 3 mps 686 mmHg 39%
    13:00 +22°C° 0 mm 3 mps 686 mmHg 38%
    14:00 +22°C° 0 mm 3 mps 686 mmHg 36%
    15:00 +24°C° 0 mm 3 mps 685 mmHg 34%
    16:00 +22°C° 0.2 mm 3 mps 685 mmHg 39%
    17:00 +20°C° 0.2 mm 3 mps 686 mmHg 44%
    18:00 +19°C° 0.2 mm 2 mps 686 mmHg 49%
    19:00 +19°C° 0.1 mm 2 mps 686 mmHg 48%
    20:00 +19°C° 0.1 mm 2 mps 686 mmHg 47%
    21:00 +19°C° 0.1 mm 2 mps 686 mmHg 46%
    22:00 +19°C° 0.1 mm 2 mps 685 mmHg 47%
    23:00 +18°C° 0.1 mm 2 mps 685 mmHg 47%

    29 October, Sunday

    Time Temperature Precipitation Wind Pressure Humidity
    00:00 +18°C° 0.1 mm 2 mps 685 mmHg 48%
    01:00 +17°C° 0.7 mm 3 mps 685 mmHg 52%
    02:00 +17°C° 0.7 mm 3 mps 685 mmHg 56%
    03:00 +16°C° 0.7 mm 3 mps 685 mmHg 60%
    04:00 +16°C° 0.6 mm 3 mps 685 mmHg 62%
    05:00 +16°C° 0.6 mm 3 mps 685 mmHg 63%
    06:00 +14°C° 0.6 mm 3 mps 685 mmHg 65%
    07:00 +16°C° 0 mm 3 mps 685 mmHg 61%
    08:00 +17°C° 0 mm 2 mps 685 mmHg 56%
    09:00 +18°C° 0 mm 2 mps 686 mmHg 52%
    10:00 +19°C° 0 mm 2 mps 685 mmHg 49%
    11:00 +20°C° 0 mm 2 mps 685 mmHg 45%
    12:00 +21°C° 0 mm 2 mps 685 mmHg 41%
    13:00 +21°C° 0 mm 2 mps 685 mmHg 39%
    14:00 +22°C° 0 mm 3 mps 685 mmHg 37%
    15:00 +22°C° 0 mm 3 mps 684 mmHg 36%
    16:00 +21°C° 0 mm 3 mps 685 mmHg 38%
    17:00 +20°C° 0 mm 2 mps 685 mmHg 40%
    18:00 +19°C° 0 mm 2 mps 685 mmHg 42%
    19:00 +19°C° 0 mm 2 mps 685 mmHg 43%
    20:00 +18°C° 0 mm 2 mps 685 mmHg 44%
    21:00 +19°C° 0 mm 1 mps 685 mmHg 44%
    22:00 +18°C° 0 mm 1 mps 685 mmHg 45%
    23:00 +18°C° 0 mm 1 mps 685 mmHg 46%
    Show more